{"data":{"norad_id":65340,"intl_designator":"2025-189T","name":"STARLINK-35020","alt_names":[],"object_type":"PAYLOAD","status":"ACTIVE","operator":null,"country":"US","launch_date":"2025-08-27","launch_site_code":"AFETR","launch_vehicle":null,"mission":null,"orbit_class":"UNKNOWN","rcs_meters":null,"size_class":null,"mass_kg":null,"dimensions":null,"purposes":["comms"],"wikipedia_slug":null,"has_3d_model":false,"image_url":null,"decayed_at":null,"tle_current":{"epoch":"2026-09-20T14:18:05.750496Z","epoch_age_seconds":109295,"freshness":"FRESH","line1":"1 65340U 25189T   26263.59589989  .00020717  00000+0  67710-3 0  9994","line2":"2 65340  53.1613  19.5881 0000879  88.4161 271.6941 15.31718910 60926","mean_motion":15.3171891,"eccentricity":8.79e-5,"inclination_deg":53.1613,"raan_deg":19.5881,"arg_perigee_deg":88.4161,"mean_anomaly_deg":271.6941,"bstar":0.0006771,"rev_number":6092,"period_min":94.012027311199,"perigee_km":470.08161474654,"apogee_km":471.28563741261,"semimajor_km":6848.8206260796,"source":"CELESTRAK","updated_at":"2026-09-21T09:00:35.572347Z"}}}